Weather History for Cozumel, Mexico

Change the Weather History Date:

Thursday, November 28, 2013

  Actual Average Record
Temperature  
Mean Temperature 70 °F -  
Max Temperature 73 °F 82 °F 86 °F (1997)
Min Temperature 66 °F 72 °F 62 °F (2008)
Cooling Degree Days 4    
Growing Degree Days 20 (Base 50)    
Moisture  
Dew Point 61 °F    
Average Humidity 76    
Maximum Humidity 88    
Minimum Humidity 65    
Precipitation  
Precipitation 0.00 in - - ()
Sea Level Pressure  
Sea Level Pressure 30.16 in    
Wind  
Wind Speed 14 mph ()    
Max Wind Speed 22 mph    
Max Gust Speed 26 mph    
Visibility 7.5 miles    
Events      
Averages and records for this station are not official NWS values.
T = Trace of Precipitation, MM = Missing Value Source: Averaged Metar Reports

Daily Weather History Graph

Daily Weather History Graph

Search for Another Location

Airport:

Trip Planner

Search our weather history database for the weather conditions in past years. The results will help you decide how hot, cold, wet, or windy it might be!

Date:

Astronomy

Nov. 28, 2013 Rise Set
Actual Time 6:05 AM CST 5:05 PM CST
Civil Twilight 5:41 AM CST 5:29 PM CST
Nautical Twilight 5:14 AM CST 5:56 PM CST
Astronomical Twilight 4:47 AM CST 6:23 PM CST
Moon 1:40 AM CST (11/28) 1:45 PM CST (11/28)
Length of Visible Light 11h 47m
Length of Day
11h 00m
Waning Crescent, 22% of the Moon is Illuminated
Nov 28
Waning Crescent
Dec 2
New
Dec 9
First Quarter
Dec 17
Full
Dec 25
Last Quarter

Hourly Weather History & Observations

Time (CST) Temp. Dew Point Humidity Pressure Visibility Wind Dir Wind Speed Gust Speed Precip Events Conditions
12:49 AM 66.2 °F 60.8 °F 83% 30.15 in 7.0 mi North 17.3 mph - N/A   Partly Cloudy
1:57 AM 66.2 °F 60.8 °F 83% 30.13 in 7.0 mi NNW 12.7 mph - N/A   Partly Cloudy
2:46 AM 66.2 °F 62.6 °F 88% 30.15 in 7.0 mi NNW 18.4 mph - N/A   Partly Cloudy
3:45 AM 66.2 °F 62.6 °F 88% 30.12 in 7.0 mi North 13.8 mph - N/A   Partly Cloudy
4:44 AM 66.2 °F 62.6 °F 88% 30.13 in 7.0 mi North 20.7 mph - N/A   Partly Cloudy
5:40 AM 66.2 °F 60.8 °F 83% 30.12 in 7.0 mi North 21.9 mph - N/A   Scattered Clouds
6:43 AM 66.2 °F 60.8 °F 83% 30.17 in 8.0 mi NNW 19.6 mph - N/A   Scattered Clouds
7:40 AM 68.0 °F 60.8 °F 78% 30.19 in 8.0 mi North 15.0 mph 26.5 mph N/A   Mostly Cloudy
8:40 AM 68.0 °F 60.8 °F 78% 30.23 in 8.0 mi North 11.5 mph 23.0 mph N/A   Mostly Cloudy
9:44 AM 69.8 °F 60.8 °F 73% 30.20 in 8.0 mi North 15.0 mph 26.5 mph N/A   Mostly Cloudy
10:40 AM 71.6 °F 60.8 °F 69% 30.19 in 8.0 mi NNW 11.5 mph 23.0 mph N/A   Mostly Cloudy
11:40 AM 71.6 °F 60.8 °F 69% 30.15 in 8.0 mi North 11.5 mph 23.0 mph N/A   Scattered Clouds
12:40 PM 73.4 °F 60.8 °F 65% 30.14 in 8.0 mi North 17.3 mph - N/A   Scattered Clouds
1:40 PM 71.6 °F 60.8 °F 69% 30.12 in 8.0 mi North 15.0 mph - N/A   Mostly Cloudy
2:41 PM 71.6 °F 60.8 °F 69% 30.14 in 8.0 mi North 11.5 mph - N/A   Mostly Cloudy
3:40 PM 69.8 °F 60.8 °F 73% 30.13 in 8.0 mi North 15.0 mph - N/A   Mostly Cloudy
4:44 PM 69.8 °F 60.8 °F 73% 30.15 in 8.0 mi North 11.5 mph - N/A   Mostly Cloudy
5:40 PM 68.0 °F 59.0 °F 73% 30.13 in 8.0 mi North 17.3 mph - N/A   Scattered Clouds
6:40 PM 68.0 °F 59.0 °F 73% 30.18 in 8.0 mi North 20.7 mph - N/A   Scattered Clouds
7:46 PM 68.0 °F 59.0 °F 73% 30.20 in 7.0 mi North 18.4 mph - N/A   Clear
8:45 PM 68.0 °F 59.0 °F 73% 30.22 in 7.0 mi North 18.4 mph - N/A   Clear
9:42 PM 68.0 °F 59.0 °F 73% 30.20 in 7.0 mi North 17.3 mph - N/A   Clear
11:00 PM 68.0 °F 60.8 °F 78% 30.19 in 7.0 mi North 12.7 mph - N/A   Clear
11:41 PM 68.0 °F 60.8 °F 78% 30.15 in 7.0 mi North 12.7 mph - N/A   Clear